Location: Squirrel Cove
(50.1074°N, 124.9139°W)
Time: 02:27:13
(UTC-08:00)

N. Korean satellite - Visible Passes

Search period start: 01 December 2021 00:00
Search period end: 11 December 2021 00:00
Orbit: 447 x 495 km, 97.3° (Epoch: 30 November)

Date Brightness Start Highest point End Pass type
(mag) Time Alt. Az. Time Alt. Az. Time Alt. Az.
01 Dec 9.8 04:34:53 10° ENE 04:36:26 12° E 04:37:57 10° ESE visible
01 Dec 6.5 06:06:37 10° N 06:09:57 51° WNW 06:13:14 10° SSW visible
02 Dec 6.6 05:38:04 10° NNE 05:41:29 70° ESE 05:44:51 10° S visible
02 Dec 8.4 07:13:10 10° NW 07:14:10 11° WNW 07:15:09 10° WNW visible
02 Dec 9.8 17:51:15 10° WSW 17:53:09 14° W 17:55:02 10° WNW visible
03 Dec 8.3 05:09:49 10° NNE 05:12:53 30° E 05:15:55 10° SSE visible
03 Dec 7.7 06:43:20 10° NNW 06:45:56 21° WNW 06:48:31 10° WSW visible
03 Dec 8.9 17:21:22 10° SSW 17:24:26 27° W 17:27:28 10° NW visible
04 Dec 9.5 04:42:06 10° NE 04:44:10 15° E 04:46:13 10° SE visible
04 Dec 6.7 06:14:22 10° N 06:17:35 41° WNW 06:20:47 10° SW visible
04 Dec 7.2 16:52:20 10° S 16:55:49 59° W 16:59:16 10° NNW visible
05 Dec 6.3 05:45:42 10° NNE 05:49:06 87° E 05:52:30 10° SSW visible
05 Dec 10.0 17:59:43 10° WSW 18:00:51 11° W 18:02:01 10° WNW visible
06 Dec 7.9 05:17:19 10° NNE 05:20:31 37° E 05:23:42 10° SSE visible
06 Dec 7.9 06:51:09 10° NNW 06:53:28 17° WNW 06:55:47 10° WSW visible
06 Dec 9.3 17:29:15 10° SSW 17:32:05 22° W 17:34:53 10° NW visible
07 Dec 9.2 04:49:23 10° NE 04:51:49 18° E 04:54:14 10° SE visible
07 Dec 7.0 06:22:02 10° N 06:25:08 33° WNW 06:28:12 10° SW visible
07 Dec 7.7 17:00:01 10° S 17:03:24 47° W 17:06:46 10° NNW visible
08 Dec 6.2 05:53:15 10° N 05:56:39 75° WNW 06:00:02 10° SSW visible
09 Dec 7.4 05:24:46 10° NNE 05:28:04 47° E 05:31:21 10° S visible
09 Dec 8.1 06:58:58 10° NNW 07:00:55 15° WNW 07:02:53 10° W visible
09 Dec 9.5 17:37:08 10° SW 17:39:39 18° W 17:42:09 10° NW visible
10 Dec 9.0 04:56:38 10° NE 05:00:15 20° ESE 05:02:04 10° SSE visible
10 Dec 7.7 06:29:37 10° N 06:34:24 17° WSW 06:35:30 10° SW visible
10 Dec 8.2 17:07:39 10° SSW 17:10:55 37° W 17:14:09 10° NNW visible
